Meteo pe oră la Bolshoe Losvido

Astăzi, 19 Mai, Miercuri

Timp Temperatura Precipitaţii Vânt Presiune Umiditate
00:00 +15°C° 0.1 mm 1 m/s 734 mmHg 96%
01:00 +15°C° 0.1 mm 1 m/s 734 mmHg 97%
02:00 +14°C° 0.1 mm 2 m/s 734 mmHg 97%
03:00 +14°C° 0.1 mm 2 m/s 734 mmHg 97%
04:00 +14°C° 0.1 mm 2 m/s 734 mmHg 97%
05:00 +14°C° 0.1 mm 2 m/s 734 mmHg 97%
06:00 +14°C° 0.3 mm 2 m/s 734 mmHg 97%
07:00 +15°C° 0.3 mm 2 m/s 734 mmHg 96%
08:00 +15°C° 0.3 mm 2 m/s 734 mmHg 95%
09:00 +16°C° 0.2 mm 3 m/s 735 mmHg 92%
10:00 +16°C° 0.2 mm 3 m/s 735 mmHg 89%
11:00 +17°C° 0.2 mm 4 m/s 735 mmHg 86%
12:00 +17°C° 0.6 mm 4 m/s 735 mmHg 87%
13:00 +17°C° 0.6 mm 4 m/s 736 mmHg 87%
14:00 +17°C° 0.6 mm 4 m/s 736 mmHg 88%
15:00 +17°C° 0.6 mm 4 m/s 736 mmHg 89%
16:00 +15°C° 0.6 mm 4 m/s 736 mmHg 89%
17:00 +15°C° 0.6 mm 4 m/s 737 mmHg 89%
18:00 +14°C° 0.1 mm 3 m/s 737 mmHg 91%
19:00 +13°C° 0.1 mm 3 m/s 737 mmHg 93%
20:00 +12°C° 0.1 mm 2 m/s 738 mmHg 95%
21:00 +12°C° 0 mm 2 m/s 738 mmHg 96%
22:00 +12°C° 0 mm 2 m/s 738 mmHg 96%
23:00 +10°C° 0 mm 2 m/s 738 mmHg 96%

Mâine, 20 Mai, Joi

Timp Temperatura Precipitaţii Vânt Presiune Umiditate
00:00 +10°C° 0 mm 3 m/s 738 mmHg 96%
01:00 +10°C° 0 mm 3 m/s 738 mmHg 96%
02:00 +9°C° 0 mm 3 m/s 738 mmHg 96%
03:00 +9°C° 0 mm 3 m/s 738 mmHg 96%
04:00 +9°C° 0 mm 3 m/s 738 mmHg 95%
05:00 +8°C° 0 mm 4 m/s 738 mmHg 95%
06:00 +8°C° 0 mm 4 m/s 738 mmHg 92%
07:00 +10°C° 0 mm 4 m/s 738 mmHg 90%
08:00 +9°C° 0 mm 5 m/s 738 mmHg 88%
09:00 +9°C° 0.5 mm 5 m/s 738 mmHg 86%
10:00 +10°C° 0.5 mm 5 m/s 738 mmHg 85%
11:00 +10°C° 0.5 mm 5 m/s 738 mmHg 83%
12:00 +10°C° 1.9 mm 5 m/s 738 mmHg 84%
13:00 +9°C° 1.9 mm 5 m/s 738 mmHg 85%
14:00 +9°C° 1.9 mm 5 m/s 739 mmHg 86%
15:00 +11°C° 0.5 mm 4 m/s 739 mmHg 84%
16:00 +11°C° 0.5 mm 4 m/s 739 mmHg 82%
17:00 +12°C° 0.5 mm 3 m/s 739 mmHg 80%
18:00 +11°C° 0 mm 3 m/s 740 mmHg 83%
19:00 +10°C° 0 mm 3 m/s 740 mmHg 86%
20:00 +10°C° 0 mm 2 m/s 741 mmHg 88%
21:00 +9°C° 0 mm 2 m/s 741 mmHg 90%
22:00 +8°C° 0 mm 2 m/s 742 mmHg 92%
23:00 +8°C° 0 mm 2 m/s 742 mmHg 93%

Poimâine, 21 Mai, Vineri

Timp Temperatura Precipitaţii Vânt Presiune Umiditate
00:00 +7°C° 0 mm 2 m/s 742 mmHg 94%
01:00 +7°C° 0 mm 2 m/s 743 mmHg 95%
02:00 +7°C° 0 mm 2 m/s 743 mmHg 95%
03:00 +7°C° 0 mm 2 m/s 743 mmHg 95%
04:00 +7°C° 0 mm 2 m/s 744 mmHg 95%
05:00 +7°C° 0 mm 2 m/s 744 mmHg 95%
06:00 +8°C° 0 mm 2 m/s 745 mmHg 88%
07:00 +10°C° 0 mm 3 m/s 745 mmHg 80%
08:00 +12°C° 0 mm 3 m/s 745 mmHg 73%
09:00 +13°C° 0 mm 3 m/s 745 mmHg 65%
10:00 +14°C° 0 mm 4 m/s 745 mmHg 57%
11:00 +14°C° 0 mm 4 m/s 745 mmHg 49%
12:00 +15°C° 0 mm 4 m/s 746 mmHg 48%
13:00 +15°C° 0 mm 4 m/s 746 mmHg 47%
14:00 +17°C° 0 mm 4 m/s 746 mmHg 46%
15:00 +17°C° 0 mm 4 m/s 746 mmHg 49%
16:00 +15°C° 0 mm 4 m/s 746 mmHg 51%
17:00 +16°C° 0 mm 3 m/s 746 mmHg 54%
18:00 +13°C° 0 mm 3 m/s 746 mmHg 61%
19:00 +13°C° 0 mm 2 m/s 746 mmHg 68%
20:00 +11°C° 0 mm 1 m/s 746 mmHg 74%
21:00 +10°C° 0 mm 1 m/s 746 mmHg 76%
22:00 +9°C° 0 mm 1 m/s 746 mmHg 78%
23:00 +8°C° 0 mm 1 m/s 746 mmHg 79%

22 Mai, Sâmbătă

Timp Temperatura Precipitaţii Vânt Presiune Umiditate
00:00 +8°C° 0 mm 1 m/s 747 mmHg 81%
01:00 +8°C° 0 mm 1 m/s 747 mmHg 82%
02:00 +7°C° 0 mm 1 m/s 747 mmHg 83%
03:00 +8°C° 0 mm 1 m/s 747 mmHg 83%
04:00 +7°C° 0 mm 2 m/s 747 mmHg 82%
05:00 +7°C° 0 mm 2 m/s 747 mmHg 82%
06:00 +9°C° 0 mm 2 m/s 747 mmHg 77%
07:00 +12°C° 0 mm 2 m/s 747 mmHg 72%
08:00 +13°C° 0 mm 3 m/s 747 mmHg 67%
09:00 +14°C° 0 mm 3 m/s 747 mmHg 62%
10:00 +15°C° 0 mm 4 m/s 746 mmHg 57%
11:00 +18°C° 0 mm 4 m/s 746 mmHg 53%
12:00 +18°C° 0 mm 4 m/s 746 mmHg 52%
13:00 +19°C° 0 mm 4 m/s 746 mmHg 50%
14:00 +19°C° 0 mm 4 m/s 746 mmHg 49%
15:00 +19°C° 0 mm 4 m/s 745 mmHg 53%
16:00 +19°C° 0 mm 3 m/s 745 mmHg 57%
17:00 +19°C° 0 mm 3 m/s 745 mmHg 60%
18:00 +17°C° 0 mm 3 m/s 745 mmHg 68%
19:00 +14°C° 0 mm 3 m/s 744 mmHg 75%
20:00 +14°C° 0 mm 2 m/s 744 mmHg 82%
21:00 +12°C° 0 mm 3 m/s 744 mmHg 85%
22:00 +11°C° 0 mm 3 m/s 744 mmHg 88%
23:00 +10°C° 0 mm 3 m/s 744 mmHg 92%

23 Mai, Duminică

Timp Temperatura Precipitaţii Vânt Presiune Umiditate
00:00 +10°C° 0 mm 3 m/s 743 mmHg 93%
01:00 +10°C° 0 mm 3 m/s 743 mmHg 94%
02:00 +10°C° 0 mm 3 m/s 743 mmHg 96%
03:00 +10°C° 0 mm 3 m/s 742 mmHg 95%
04:00 +10°C° 0 mm 3 m/s 742 mmHg 94%
05:00 +11°C° 0 mm 4 m/s 741 mmHg 93%
06:00 +12°C° 0 mm 4 m/s 741 mmHg 90%
07:00 +13°C° 0 mm 5 m/s 740 mmHg 86%
08:00 +14°C° 0 mm 5 m/s 740 mmHg 83%
09:00 +14°C° 0 mm 5 m/s 739 mmHg 80%
10:00 +15°C° 0 mm 5 m/s 739 mmHg 78%
11:00 +16°C° 0 mm 6 m/s 739 mmHg 75%
12:00 +16°C° 0.7 mm 6 m/s 738 mmHg 79%
13:00 +16°C° 0.7 mm 6 m/s 738 mmHg 83%
14:00 +16°C° 0.7 mm 6 m/s 738 mmHg 86%
15:00 +15°C° 0.6 mm 5 m/s 738 mmHg 88%
16:00 +14°C° 0.6 mm 5 m/s 738 mmHg 90%
17:00 +13°C° 0.6 mm 4 m/s 739 mmHg 92%
18:00 +12°C° 0.1 mm 4 m/s 739 mmHg 92%
19:00 +12°C° 0.1 mm 3 m/s 740 mmHg 93%
20:00 +11°C° 0.1 mm 3 m/s 740 mmHg 94%
21:00 +11°C° 0 mm 3 m/s 741 mmHg 94%
22:00 +10°C° 0 mm 2 m/s 741 mmHg 94%
23:00 +10°C° 0 mm 2 m/s 741 mmHg 95%

24 Mai, Luni

Timp Temperatura Precipitaţii Vânt Presiune Umiditate
00:00 +9°C° 0 mm 2 m/s 742 mmHg 95%
01:00 +8°C° 0 mm 2 m/s 742 mmHg 96%
02:00 +8°C° 0 mm 2 m/s 742 mmHg 97%
03:00 +7°C° 0 mm 2 m/s 743 mmHg 96%
04:00 +7°C° 0 mm 2 m/s 743 mmHg 96%
05:00 +7°C° 0 mm 2 m/s 743 mmHg 95%
06:00 +9°C° 0 mm 2 m/s 743 mmHg 88%
07:00 +10°C° 0 mm 2 m/s 744 mmHg 81%
08:00 +12°C° 0 mm 2 m/s 744 mmHg 74%
09:00 +14°C° 0 mm 2 m/s 744 mmHg 65%
10:00 +14°C° 0 mm 3 m/s 744 mmHg 57%
11:00 +16°C° 0 mm 3 m/s 744 mmHg 49%
12:00 +14°C° 0.3 mm 3 m/s 744 mmHg 58%
13:00 +12°C° 0.3 mm 3 m/s 745 mmHg 67%
14:00 +11°C° 0.3 mm 3 m/s 745 mmHg 76%
15:00 +12°C° 0.1 mm 3 m/s 745 mmHg 73%
16:00 +12°C° 0.1 mm 3 m/s 745 mmHg 70%
17:00 +13°C° 0.1 mm 3 m/s 745 mmHg 67%
18:00 +12°C° 0.3 mm 3 m/s 745 mmHg 74%
19:00 +10°C° 0.3 mm 3 m/s 745 mmHg 81%
20:00 +9°C° 0.3 mm 2 m/s 745 mmHg 88%
21:00 +8°C° 0 mm 2 m/s 746 mmHg 90%
22:00 +7°C° 0 mm 3 m/s 746 mmHg 92%
23:00 +5°C° 0 mm 3 m/s 746 mmHg 94%
Arată mai mult

Formular de consimțământ

Meteoprog și furnizorii noștri de servicii pot stoca și accesa date personale, precum cookies, identificatori de dispozitiv sau alte tehnologii similare pe dispozitivul dumneavoastră și procesa astfel de date pentru a personaliza conținutul și reclamele, dar și pentru a oferi caracteristici de social media și pentru a analiza traficul.

  • Stocarea și/sau accesarea informațiilor pe dispozitivul dumneavoastră

    Cookies, identificatori de dispozitiv sau alte informații pot fi stocate sau accesate pe dispozitiv în scopurile indicate mai sus.

  • Reclame și conținut personalizat, evaluarea reclamelor și a conținutului, informații despre audiențe și dezvoltarea produselor

    Reclamele și conținutul pot fi personalizate pe baza unui profil. Pot fi adăugate date suplimentare pentru a personaliza mai bine reclamele și conținutul. Performanța reclamelor și conținutului poate fi măsurată. Pot fi obținute informații despre utilizatorii care au văzut reclamele și conținutul. Aceste date pot fi utilizate pentru a dezvolta sau îmbunătăți experiența utilizatorilor, sistemele și software-ul.

Dând clic pe ‘Sunt de acord’, permiteți utilizarea cookie-urilor menționate, a identificatorilor de dispozitiv, balizelor web sau altor tehnologii similare. Setările pot fi modificate din browser-ul dispozitivului dumneavoastră.

În anumite scopuri, interesele legitime pot prima asupra consimțământului. Puteți citi mai multe informații în acest sens în Politica privind Confidențialitatea Datelor și Cookie.